Wind_Speed
5 5 8 3 7 11 13 12 12 18 23 20 18 15 14 21 21 22 23 29 35 38 35 38 41 42 40 32 32 34 37 46 44 49 51 48 48 50 53 53 52 55 56 53
14 10 10 12 11 14 14 12 21 18 20 25 27 17 20 19 22 15 30 31 37 44 45 35 37 38 43 40 44 44 41 46 46 48 45 47 52 55 56 58 57 56 57 57
17 15 19 16 18 14 19 23 17 23 22 29 26 23 25 23 23 24 33 35 37 50 50 34 34 40 42 45 43 45 41 39 41 40 47 53 58 64 63 61 60 61 59 57
20 14 17 16 22 19 15 17 18 22 25 25 23 25 25 24 24 35 31 37 43 40 45 37 39 44 43 41 42 50 45 49 47 43 51 64 67 74 72 68 71 63 63 63
27 23 22 21 18 21 19 20 21 20 24 26 31 32 30 26 28 35 35 34 32 41 41 44 49 48 40 45 43 50 48 58 54 52 62 66 71 78 84 82 76 69 68 65
21 23 30 28 26 25 22 22 23 28 29 31 33 33 32 33 39 35 38 38 37 43 44 47 46 41 38 40 46 55 54 57 59 64 69 72 74 81 91 85 82 73 72 70
29 24 28 31 25 24 22 27 30 29 28 29 32 33 34 32 31 36 37 38 39 41 41 40 40 39 39 38 45 44 48 53 67 66 72 79 85 85 86 81 74 74 75 71
27 22 25 23 25 22 22 26 27 27 26 29 27 30 26 31 33 31 32 35 35 37 37 41 41 40 29 23 23 47 58 65 72 75 77 82 78 80 74 73 74 73 64 65
29 31 31 25 22 22 23 27 28 26 29 28 26 24 29 26 28 33 33 32 34 35 34 39 43 34 30 13 37 52 60 71 77 77 75 76 71 70 72 71 70 62 65 65
27 28 28 24 22 23 25 31 27 23 26 29 29 30 31 32 31 32 32 31 29 24 26 30 32 32 29 26 39 46 60 72 75 76 76 69 69 68 68 68 64 62 59 57
25 27 26 24 25 30 32 27 24 26 26 26 29 29 34 37 34 33 35 32 26 16 17 23 27 34 33 33 39 57 65 71 74 75 69 66 65 66 65 59 59 56 52 48
23 22 26 22 22 24 24 24 28 30 27 28 30 34 33 30 30 32 36 31 26 25 29 31 39 48 49 53 54 69 73 75 67 63 60 59 60 62 55 56 53 48 47 46
23 22 22 22 21 24 27 29 29 30 31 30 29 28 27 27 29 36 34 27 34 39 40 40 48 58 58 56 62 68 78 68 59 55 54 54 59 57 53 51 49 46 49 47
26 25 25 23 22 24 27 28 29 28 29 28 28 28 25 26 27 32 41 35 34 36 40 44 47 60 52 64 71 76 67 58 56 54 49 52 54 49 47 50 48 48 45 44
28 28 28 26 26 28 29 27 27 28 28 29 29 27 30 31 32 39 49 33 35 38 44 45 46 47 57 67 69 68 64 57 56 51 47 50 49 51 50 48 45 40 40 43
30 30 30 28 29 29 27 25 27 26 27 32 32 33 37 34 34 44 47 35 39 45 41 47 50 55 59 69 73 69 60 56 55 49 46 47 48 51 46 41 39 41 44 43
28 27 26 26 27 27 27 24 26 30 29 28 31 37 38 35 41 46 45 43 47 46 42 55 61 66 65 74 76 67 58 54 53 48 45 44 47 46 41 40 42 42 42 43
26 26 27 28 28 28 27 27 29 31 32 38 40 39 39 43 40 48 56 43 51 47 51 54 68 75 69 71 75 62 61 59 52 48 43 42 46 41 40 43 43 43 44 48
28 28 26 27 29 31 32 31 34 34 33 33 26 27 41 39 35 51 57 41 42 49 50 55 68 72 68 73 70 67 64 56 55 47 38 43 43 40 43 45 43 43 47 50
28 28 28 27 29 31 33 37 36 36 36 38 30 34 48 40 42 48 44 43 53 51 55 61 71 66 70 73 70 71 63 59 49 38 38 42 41 41 44 44 44 45 48 52
30 30 31 32 34 36 37 40 42 42 40 43 41 43 46 29 40 56 52 48 55 57 63 68 62 66 75 74 70 71 66 55 43 38 39 39 42 45 45 46 47 49 52 53
33 33 34 36 38 39 41 42 45 48 49 49 50 51 47 53 54 58 45 47 55 56 58 59 68 73 71 73 70 66 59 50 39 38 39 43 45 45 45 46 47 49 51 56
34 36 39 41 42 43 44 46 50 53 51 51 52 53 51 55 54 54 49 56 56 57 59 64 71 68 68 68 65 60 52 44 40 40 43 44 43 45 46 47 49 51 54 59
38 38 41 44 47 46 48 50 53 55 56 56 63 61 58 57 56 56 55 62 59 61 59 66 68 64 63 62 62 55 46 41 40 41 45 46 45 45 45 47 50 52 56 60
44 44 46 48 51 50 53 56 59 62 61 66 67 60 55 54 58 60 59 60 61 63 64 66 59 56 56 65 63 52 41 39 40 43 46 47 45 45 47 49 51 54 58 62
46 47 48 49 52 54 57 59 65 63 59 57 55 52 49 49 50 52 52 53 53 55 60 55 46 50 59 64 65 48 40 39 40 45 48 48 48 48 48 51 53 57 61 62
Wind_Direction
297 315 305 6 355 348 333 323 316 338 348 347 345 352 328 347 341 335 328 334 335 336 337 329 327 327 326 327 326 324 326 330 333 338 339 341 341 338 334 334 333 330 330 330
280 273 290 306 307 327 309 294 293 309 330 333 338 345 340 336 333 296 297 311 318 320 321 321 323 330 327 322 324 322 322 329 330 336 342 344 339 337 334 334 333 332 329 327
273 290 305 304 314 317 303 279 291 278 298 314 327 328 328 331 329 325 299 296 300 305 312 320 325 330 327 328 325 328 329 339 335 340 345 346 344 340 335 335 334 334 329 324
257 266 300 291 296 300 300 309 298 289 302 311 322 322 316 321 314 324 310 303 301 309 322 320 318 327 323 316 318 327 330 336 338 331 331 334 337 337 336 335 333 328 327 324
265 274 283 288 288 290 297 297 301 300 307 307 312 318 316 315 303 316 315 318 309 311 320 324 325 326 325 318 311 326 324 328 331 328 325 329 325 329 332 331 329 327 327 325
274 273 280 287 295 291 294 294 299 298 300 308 308 310 313 307 312 313 320 320 316 315 315 320 323 334 334 325 318 321 322 323 319 321 322 321 322 323 323 325 327 329 325 322
276 283 277 281 287 281 293 300 301 299 300 308 308 311 314 309 312 313 315 317 316 316 317 322 322 339 334 326 311 306 319 314 314 316 317 320 320 318 317 322 327 327 323 320
268 280 277 283 280 281 291 305 303 301 304 308 309 306 302 305 316 312 311 312 312 313 320 327 325 324 328 317 284 295 315 319 314 313 316 317 317 321 323 329 327 328 327 325
275 275 279 283 286 283 284 307 307 301 299 310 312 305 300 311 307 308 314 319 320 325 335 327 325 325 318 295 288 291 306 311 310 312 316 319 323 325 328 328 330 330 330 328
279 277 278 279 282 290 294 301 300 303 309 311 309 310 309 304 309 312 314 320 321 328 339 329 330 345 341 315 317 306 308 311 314 316 318 323 325 328 328 330 333 331 336 338
277 276 277 275 281 292 295 294 300 302 301 300 304 307 305 308 317 322 319 312 309 313 333 336 338 340 330 322 334 337 327 314 313 314 318 322 326 327 329 334 337 340 342 345
280 284 283 286 289 294 298 299 297 296 299 302 305 304 309 313 322 318 316 310 308 311 308 310 328 334 330 335 319 330 330 326 317 316 323 327 325 330 336 340 341 345 348 351
272 274 280 286 293 297 295 294 293 296 301 302 302 303 305 317 323 332 332 324 317 316 311 309 319 329 333 336 338 332 329 326 323 324 327 327 330 335 342 344 342 343 344 346
269 276 278 284 285 280 281 285 291 295 296 301 304 304 308 312 332 335 338 320 317 328 322 315 317 327 335 341 337 332 333 329 329 330 327 329 335 341 343 341 340 339 343 346
269 273 278 282 279 280 285 287 287 290 295 299 300 296 304 306 304 317 329 325 316 330 337 322 325 330 342 340 337 334 334 334 331 329 329 331 338 340 335 333 338 343 346 347
270 272 276 278 279 282 283 284 289 295 301 303 305 312 312 295 291 315 326 335 332 333 333 347 341 342 340 339 342 337 334 334 328 329 329 336 341 340 339 339 342 343 347 349
271 276 278 276 277 277 281 287 294 297 298 300 293 301 304 305 301 318 325 328 333 319 308 330 342 338 333 335 337 337 335 334 334 335 337 337 340 338 337 341 342 344 349 349
269 272 273 277 279 280 283 288 291 293 298 301 305 308 311 317 301 314 322 326 318 303 312 312 323 333 331 334 337 335 339 336 333 334 336 338 339 338 341 342 342 343 346 346
270 273 274 279 283 283 284 285 287 293 298 316 317 309 322 316 314 320 318 309 304 301 307 309 321 327 327 335 337 340 338 335 335 336 338 341 339 340 341 341 341 342 344 345
264 268 272 276 280 286 292 292 296 298 302 311 296 307 317 309 302 315 316 303 305 309 315 315 315 319 331 332 334 339 337 335 335 337 340 342 340 339 340 339 339 341 343 343
265 268 271 274 278 282 289 292 295 295 296 302 304 300 309 301 293 309 305 306 309 309 312 315 319 320 327 329 331 336 336 334 334 338 341 340 338 338 338 339 340 342 343 342
270 273 276 278 283 286 290 293 294 297 294 296 299 301 298 296 289 306 301 309 309 309 314 319 320 319 324 326 328 334 338 334 337 343 340 338 338 337 337 341 340 342 342 342
270 274 276 281 282 284 286 290 291 292 295 298 300 301 299 294 295 298 295 304 307 308 311 316 318 324 324 325 327 337 336 332 336 340 341 340 338 337 340 341 341 343 343 341
267 269 274 280 283 286 289 290 289 289 292 293 296 296 294 294 292 293 288 295 303 304 308 312 317 321 321 323 332 337 332 332 336 342 341 338 337 338 339 340 340 341 340 340
271 274 277 281 285 287 289 289 290 292 293 295 295 292 293 291 290 293 297 299 300 300 297 307 314 319 322 331 334 333 329 326 332 337 337 337 336 336 338 338 338 339 339 339
274 276 278 279 285 289 290 291 294 296 297 293 294 296 297 296 297 298 299 298 298 298 297 306 313 318 324 329 331 326 321 324 331 334 333 334 336 336 336 335 336 337 337 339
Height
10951 10951 10950 10949 10947 10944 10942 10941 10939 10937 10936 10934 10931 10927 10924 10919 10916 10912 10907 10901 10897 10894 10891 10886 10881 10873 10866 10861 10854 10849 10843 10837 10830 10822 10814 10807 10799 10792 10784 10778 10771 10763 10755 10747
10949 10949 10949 10948 10946 10945 10943 10942 10939 10936 10935 10932 10930 10927 10923 10919 10915 10910 10904 10897 10892 10888 10885 10881 10876 10868 10862 10857 10849 10842 10837 10831 10824 10817 10808 10799 10792 10786 10777 10770 10763 10755 10746 10737
10946 10947 10947 10946 10945 10943 10942 10941 10940 10937 10935 10933 10928 10924 10919 10915 10911 10906 10900 10894 10890 10884 10877 10875 10872 10867 10859 10850 10845 10836 10830 10825 10817 10810 10802 10794 10787 10780 10770 10761 10753 10745 10737 10729
10945 10946 10945 10943 10941 10940 10939 10937 10936 10935 10932 10929 10925 10921 10915 10911 10907 10902 10895 10889 10887 10879 10872 10868 10866 10864 10857 10844 10838 10832 10826 10818 10811 10803 10795 10788 10780 10772 10764 10752 10743 10734 10726 10716
10941 10942 10941 10939 10939 10937 10935 10932 10930 10930 10929 10925 10919 10915 10909 10907 10903 10898 10891 10883 10877 10875 10869 10864 10859 10855 10850 10840 10829 10825 10820 10813 10805 10799 10791 10780 10772 10764 10755 10743 10732 10722 10713 10702
10936 10937 10935 10935 10936 10933 10930 10927 10926 10925 10923 10921 10917 10911 10907 10902 10899 10893 10888 10880 10875 10871 10868 10862 10856 10849 10846 10836 10826 10816 10811 10805 10799 10792 10783 10775 10766 10755 10745 10733 10721 10708 10698 10688
10931 10932 10930 10932 10932 10929 10926 10924 10922 10920 10919 10917 10913 10908 10904 10899 10897 10891 10886 10879 10873 10869 10862 10857 10849 10845 10839 10836 10817 10805 10802 10797 10789 10786 10777 10766 10754 10745 10734 10722 10709 10696 10683 10672
10926 10927 10926 10927 10926 10925 10923 10920 10918 10915 10915 10913 10908 10903 10901 10896 10893 10888 10884 10878 10872 10864 10859 10850 10844 10842 10841 10835 10830 10811 10797 10790 10783 10779 10768 10755 10742 10731 10719 10708 10696 10684 10671 10658
10920 10921 10921 10922 10921 10920 10919 10916 10914 10910 10909 10908 10903 10898 10895 10893 10889 10884 10878 10872 10865 10859 10852 10846 10840 10833 10832 10831 10823 10811 10797 10788 10776 10763 10752 10742 10728 10717 10707 10695 10683 10673 10662 10648
10915 10915 10915 10917 10916 10915 10913 10912 10909 10907 10904 10900 10898 10892 10888 10884 10882 10876 10870 10865 10860 10856 10851 10845 10838 10831 10830 10827 10819 10811 10800 10783 10766 10753 10740 10728 10717 10707 10695 10684 10673 10664 10652 10640
10910 10909 10911 10911 10912 10910 10908 10907 10905 10903 10900 10894 10889 10887 10881 10876 10874 10869 10864 10860 10854 10850 10845 10839 10834 10828 10823 10817 10809 10800 10789 10773 10758 10744 10730 10720 10709 10699 10687 10674 10664 10654 10645 10636
10906 10905 10905 10906 10906 10904 10903 10901 10899 10896 10892 10888 10883 10878 10877 10872 10869 10864 10860 10854 10849 10844 10838 10832 10826 10820 10813 10805 10798 10790 10776 10761 10745 10734 10723 10712 10703 10692 10678 10668 10659 10651 10642 10633
10902 10902 10902 10901 10901 10899 10897 10896 10892 10889 10885 10882 10878 10875 10870 10866 10863 10858 10854 10848 10843 10837 10829 10824 10818 10809 10803 10795 10788 10777 10762 10747 10736 10725 10715 10706 10695 10683 10672 10663 10656 10648 10639 10629
10897 10896 10897 10898 10898 10895 10892 10890 10887 10884 10880 10878 10875 10869 10864 10860 10855 10851 10847 10842 10836 10832 10825 10818 10810 10802 10794 10785 10775 10763 10750 10740 10728 10718 10708 10699 10688 10677 10668 10660 10653 10644 10635 10626
10892 10891 10891 10892 10890 10888 10886 10883 10880 10877 10875 10872 10869 10865 10860 10854 10848 10842 10840 10834 10830 10824 10819 10812 10806 10796 10788 10781 10770 10757 10746 10733 10721 10712 10702 10692 10682 10673 10665 10656 10648 10640 10630 10622
10886 10886 10886 10885 10882 10880 10879 10876 10875 10873 10869 10866 10863 10859 10855 10846 10841 10836 10831 10823 10817 10812 10807 10804 10798 10791 10783 10774 10762 10750 10736 10724 10715 10705 10695 10684 10676 10669 10661 10651 10642 10634 10626 10618
10882 10881 10879 10877 10875 10873 10872 10872 10869 10865 10864 10861 10856 10851 10844 10838 10833 10828 10821 10815 10810 10805 10798 10791 10785 10780 10772 10762 10750 10739 10727 10717 10707 10697 10687 10680 10673 10665 10656 10646 10637 10629 10621 10613
10875 10874 10871 10869 10868 10866 10867 10865 10861 10858 10857 10852 10849 10844 10839 10833 10823 10818 10813 10808 10803 10799 10794 10787 10779 10772 10764 10754 10743 10729 10719 10708 10699 10690 10681 10674 10668 10659 10650 10641 10632 10623 10615 10608
10867 10867 10865 10863 10861 10858 10858 10857 10851 10851 10852 10847 10842 10836 10830 10824 10817 10813 10804 10801 10796 10792 10788 10781 10774 10767 10760 10748 10735 10723 10712 10702 10692 10681 10674 10667 10659 10651 10643 10635 10627 10619 10610 10602
10862 10861 10860 10858 10855 10852 10849 10847 10845 10842 10841 10835 10833 10829 10823 10815 10809 10808 10803 10795 10791 10785 10779 10773 10768 10759 10749 10740 10728 10716 10705 10694 10685 10676 10668 10660 10653 10646 10639 10631 10622 10613 10604 10595
10856 10855 10854 10852 10850 10847 10844 10841 10837 10833 10832 10828 10826 10821 10815 10808 10801 10797 10791 10786 10780 10775 10767 10760 10755 10747 10738 10729 10718 10707 10697 10687 10678 10669 10662 10655 10649 10641 10634 10624 10614 10605 10596 10588
10849 10848 10846 10844 10842 10840 10837 10833 10827 10822 10820 10818 10815 10810 10808 10801 10797 10789 10782 10778 10771 10765 10757 10750 10743 10734 10726 10719 10708 10696 10686 10678 10670 10663 10657 10650 10644 10636 10627 10618 10610 10601 10592 10581
10840 10840 10837 10835 10833 10831 10829 10825 10818 10812 10809 10806 10801 10799 10795 10789 10784 10781 10776 10770 10763 10755 10749 10742 10733 10723 10715 10705 10697 10685 10678 10673 10665 10658 10652 10645 10638 10630 10620 10612 10604 10595 10586 10577
10831 10831 10829 10826 10823 10822 10818 10813 10807 10802 10800 10798 10793 10788 10783 10777 10772 10769 10766 10761 10754 10748 10742 10735 10727 10719 10709 10700 10690 10678 10672 10665 10659 10653 10646 10639 10633 10625 10617 10609 10599 10591 10582 10572
10821 10821 10820 10817 10813 10812 10806 10801 10795 10790 10789 10784 10776 10773 10771 10766 10760 10755 10752 10748 10744 10739 10734 10728 10721 10713 10706 10695 10683 10674 10667 10662 10655 10647 10640 10634 10628 10620 10611 10603 10595 10587 10577 10567
10810 10810 10809 10806 10802 10799 10792 10787 10782 10780 10775 10769 10763 10759 10756 10750 10746 10741 10738 10735 10731 10727 10724 10719 10712 10704 10697 10689 10680 10671 10664 10657 10649 10642 10635 10629 10621 10613 10606 10598 10590 10580 10570 10561